Weather History for KAVL - April, 2013

Change the Weather History Date:

Thursday, April 11, 2013

  Actual Average Record
Temperature  
Mean Temperature 66 °F 54 °F  
Max Temperature 75 °F 67 °F 83 °F (2001)
Min Temperature 57 °F 42 °F 24 °F (1966)
Degree Days  
Heating Degree Days 0 11  
Month to date heating degree days 121 137  
Since 1 July heating degree days 3772 3909  
Cooling Degree Days 1 0  
Month to date cooling degree days 2 0  
Year to date cooling degree days 2 1  
Growing Degree Days 16 (Base 50)    
Moisture  
Dew Point 56 °F    
Average Humidity 70    
Maximum Humidity 93    
Minimum Humidity 46    
Precipitation  
Precipitation 0.87 in 0.11 in 1.58 in (1962)
Month to date precipitation 1.49 1.25  
Year to date precipitation 16.95 12.51  
Snow  
Snow 0.00 in 0.00 in 2.00 in (1956)
Month to date snowfall 0.0 0.4  
Since 1 July snowfall 0.5 9.6  
Snow Depth 0.00 in    
Sea Level Pressure  
Sea Level Pressure 29.83 in    
Wind  
Wind Speed 9 mph (South)    
Max Wind Speed 23 mph    
Max Gust Speed 37 mph    
Visibility 9 miles    
Events Rain , Thunderstorm    
T = Trace of Precipitation, MM = Missing Value Source: NWS Daily Summary

Daily Weather History Graph

Daily Weather History Graph

Search for Another Location

Airport or City:

Trip Planner

Search our weather history database for the weather conditions in past years. The results will help you decide how hot, cold, wet, or windy it might be!

Date:

Astronomy

Apr. 11, 2013 Rise Set
Actual Time 7:02 AM EDT 8:00 PM EDT
Civil Twilight 6:36 AM EDT 8:26 PM EDT
Nautical Twilight 6:05 AM EDT 8:57 PM EDT
Astronomical Twilight 5:34 AM EDT 9:28 PM EDT
Moon 7:36 AM EDT (4/11) 9:29 PM EDT (4/11)
Length of Visible Light 13h 49m
Length of Day
12h 57m
New Moon, 2% of the Moon is Illuminated
Apr 11
New Moon
Apr 18
First Quarter
Apr 25
Full
May 2
Last Quarter
May 9
New

Hourly Weather History & Observations

Time (EDT) Temp. Dew Point Humidity Pressure Visibility Wind Dir Wind Speed Gust Speed Precip Events Conditions
12:54 AM 62.1 °F 53.1 °F 72% 29.94 in 10.0 mi Calm Calm - N/A   Clear
1:54 AM 61.0 °F 53.1 °F 75% 29.94 in 10.0 mi South 4.6 mph - N/A   Clear
2:54 AM 62.1 °F 53.1 °F 72% 29.91 in 10.0 mi Calm Calm - N/A   Clear
3:54 AM 60.1 °F 52.0 °F 75% 29.90 in 10.0 mi SSE 4.6 mph - N/A   Clear
4:54 AM 62.1 °F 51.1 °F 67% 29.90 in 10.0 mi SSE 6.9 mph - N/A   Clear
5:54 AM 60.1 °F 52.0 °F 75% 29.91 in 10.0 mi South 8.1 mph - N/A   Clear
6:54 AM 57.9 °F 52.0 °F 81% 29.92 in 10.0 mi South 4.6 mph - N/A   Clear
7:54 AM 61.0 °F 53.1 °F 75% 29.93 in 10.0 mi South 3.5 mph - N/A   Clear
8:54 AM 61.0 °F 54.0 °F 78% 29.94 in 10.0 mi SSE 3.5 mph - N/A   Clear
9:54 AM 64.9 °F 55.9 °F 73% 29.93 in 10.0 mi SSE 6.9 mph - N/A   Clear
10:54 AM 68.0 °F 54.0 °F 61% 29.93 in 10.0 mi SSW 9.2 mph - N/A   Partly Cloudy
11:54 AM 70.0 °F 53.1 °F 55% 29.92 in 10.0 mi SSW 17.3 mph 28.8 mph N/A   Scattered Clouds
12:54 PM 71.6 °F 51.8 °F 50% 29.95 in 10.0 mi South 16.1 mph 25.3 mph N/A   Partly Cloudy
1:54 PM 73.9 °F 51.1 °F 45% 29.86 in 10.0 mi South 18.4 mph 29.9 mph N/A   Clear
2:54 PM 73.0 °F 52.0 °F 48% 29.83 in 10.0 mi South 12.7 mph 24.2 mph N/A   Scattered Clouds
3:54 PM 73.9 °F 53.1 °F 48% 29.81 in 10.0 mi South 12.7 mph 19.6 mph N/A   Mostly Cloudy
4:54 PM 73.0 °F 54.0 °F 51% 29.77 in 10.0 mi South 13.8 mph - N/A   Mostly Cloudy
5:54 PM 73.0 °F 55.0 °F 53% 29.75 in 10.0 mi SSE 13.8 mph - N/A   Overcast
6:54 PM 71.1 °F 57.0 °F 61% 29.75 in 10.0 mi SSE 13.8 mph 20.7 mph N/A   Overcast
7:54 PM 69.1 °F 59.0 °F 70% 29.73 in 10.0 mi South 9.2 mph - 0.00 in Rain Light Rain
8:37 PM 66.2 °F 60.8 °F 83% 29.77 in 10.0 mi SSE 11.5 mph - 0.02 in Rain Light Rain
8:54 PM 64.9 °F 62.1 °F 90% 29.73 in 6.0 mi SSW 5.8 mph - 0.04 in Rain Heavy Rain
8:55 PM 64.4 °F 62.6 °F 94% 29.78 in 5.0 mi South 6.9 mph - 0.00 in Rain , Thunderstorm Thunderstorms and Rain
9:40 PM 64.4 °F 62.6 °F 94% 29.77 in 7.0 mi South 9.2 mph - 0.23 in Rain , Thunderstorm Thunderstorms and Rain
9:51 PM 64.4 °F 62.6 °F 94% 29.77 in 3.0 mi SSE 10.4 mph - 0.29 in Rain Heavy Rain
9:54 PM 64.9 °F 62.1 °F 90% 29.71 in 3.0 mi SSE 11.5 mph 16.1 mph 0.29 in Rain Light Rain
10:07 PM 66.2 °F 62.6 °F 88% 29.77 in 7.0 mi SSE 12.7 mph 19.6 mph 0.02 in Rain Rain
10:54 PM 66.0 °F 63.0 °F 90% 29.70 in 10.0 mi SSE 6.9 mph - 0.08 in Thunderstorm Thunderstorm
11:54 PM 66.0 °F 63.0 °F 90% 29.68 in 7.0 mi South 19.6 mph 25.3 mph 0.09 in Rain , Thunderstorm Thunderstorms and Rain